Flag for Denmark Weather past 2 weeks in Aarhus, Denmark

Now
46 °F

Passing clouds.


Feels Like: 38 °F
Forecast: 37 / 44 °F
Wind: 26 mph from Northwest

Location: Tirstrup

Current Time: Mar 30, 2015 at 4:42:26 PM

Latest Report: Mar 30, 2015 at 4:20 PM


Visibility: N/A

Pressure: 29.21 "Hg

Humidity: 53%

Dew point: 30 °F

Location of AarhusLocation

Historic Weather in Aarhus — Graph

°F

Aarhus temperature yesterday

Maximum temperature yesterday: 48 °F (at 11:50 AM)
Minimum temperature yesterday: 43 °F (at 12:20 AM)
Average temperature yesterday: 45 °F

Past Weeks' High & Low Weather Summary

 TemperatureHumidityPressure
High55 °F (Mar 19, 1:50 PM)93% (Mar 20, 2:50 AM)30.69 "Hg (Mar 20, 2:50 AM)
Low23 °F (Mar 22, 6:20 AM)33% (Mar 19, 1:20 PM)28.94 "Hg (Mar 30, 2:50 AM)
Average42 °F72%30.02 "Hg
* Reported Mar 15 2:20 PM — Mar 30 3:20 PM, Aarhus, Weather by CustomWeather, © 2015

Note: Actual official high and low records may vary slightly from our data, if they occured in-between our weather recording intervals... More about our weather records

Advertising

Aarhus weather history for previous 24 hours

 ConditionsComfort  
Time TempWeatherWind HumidityBarometerVisibility
3:20 PM
Mon, Mar 30
48 °FPassing clouds.26 mph50%29.18 "HgN/A
2:50 PM48 °FScattered clouds.25 mph50%29.18 "HgN/A
2:20 PM46 °FPartly sunny.25 mph57%29.15 "HgN/A
1:50 PM46 °FBroken clouds.24 mph62%29.15 "HgN/A
1:20 PM46 °FPartly sunny.26 mph57%29.12 "HgN/A
12:50 PM46 °FPartly sunny.25 mph62%29.12 "HgN/A
12:20 PM45 °FPartly sunny.28 mph61%29.09 "HgN/A
11:50 AM46 °FPartly sunny.26 mph62%29.09 "HgN/A
11:20 AM45 °FPartly sunny.23 mph66%29.06 "HgN/A
10:50 AM43 °FPartly sunny.21 mph71%29.06 "HgN/A
10:20 AM43 °FPartly sunny.24 mph71%29.06 "HgN/A
9:50 AM43 °FPartly sunny.21 mph71%29.03 "HgN/A
9:20 AM41 °FPartly sunny.17 mph76%29.03 "HgN/A
8:50 AM41 °FPartly sunny.17 mph81%29.03 "HgN/A
8:20 AM41 °FPartly sunny.18 mph81%29.00 "HgN/A
7:50 AM41 °FPassing clouds.17 mph81%29.00 "HgN/A
7:20 AM41 °FPassing clouds.16 mph81%28.97 "HgN/A
6:50 AM41 °FPassing clouds.16 mph81%28.97 "HgN/A
6:20 AM41 °FPassing clouds.15 mph81%28.97 "HgN/A
5:50 AM39 °FOvercast.15 mph87%28.97 "HgN/A
5:20 AM39 °FLow clouds.17 mph87%28.97 "HgN/A
4:50 AM39 °FPassing clouds.17 mph87%28.94 "HgN/A
4:20 AM41 °FLow clouds.15 mph81%28.94 "Hg5 mi
3:50 AM41 °FPassing clouds.17 mph87%28.94 "HgN/A
3:20 AM41 °FOvercast.8 mph87%28.94 "HgN/A
2:50 AM41 °FPassing clouds.6 mph93%28.94 "Hg4 mi
2:20 AM41 °FSprinkles. Passing clouds.5 mph93%28.97 "Hg4 mi
1:50 AM43 °FDrizzle. Overcast.5 mph87%28.97 "Hg4 mi
1:20 AM43 °FPassing clouds.5 mph87%28.97 "Hg3 mi
12:50 AM43 °FDrizzle. Overcast.2 mph87%28.97 "Hg4 mi
12:20 AM43 °FPassing clouds.2 mph81%28.97 "Hg5 mi
11:50 PM
Sun, Mar 29
43 °FPassing clouds.2 mph81%28.97 "Hg6 mi
11:20 PM43 °FPassing clouds.1 mph81%29.00 "Hg6 mi
10:50 PM43 °FPartly cloudy.1 mph81%29.00 "HgN/A
10:20 PM43 °FOvercast.2 mph81%29.00 "Hg6 mi
9:50 PM43 °FPassing clouds.3 mph81%29.03 "Hg6 mi
9:20 PM43 °FPassing clouds.3 mph81%29.03 "HgN/A
8:50 PM43 °FPassing clouds.3 mph81%29.03 "HgN/A
8:20 PM45 °FScattered clouds.3 mph76%29.06 "HgN/A
7:50 PM45 °FPartly sunny.5 mph76%29.06 "HgN/A
7:20 PM45 °FPartly sunny.3 mph81%29.06 "HgN/A
6:50 PM45 °FSprinkles. Partly sunny.7 mph76%29.09 "HgN/A
6:20 PM46 °FBroken clouds.6 mph76%29.09 "HgN/A
5:50 PM46 °FBroken clouds.9 mph71%29.12 "HgN/A
5:20 PM46 °FPartly sunny.8 mph76%29.12 "HgN/A
4:50 PM46 °FSprinkles. Partly sunny.10 mph71%29.12 "HgN/A
4:20 PM46 °FPartly sunny.6 mph76%29.15 "HgN/A
Weather by CustomWeather, © 2015

See weather overviewHow to use our weather pages